Torna al catalogo

STARLINK-4711

AttivoComunicazioniVLEO
NORAD 53701·PAYLOAD·🇺🇸 United States

Lanciato Sep 5, 2022 da Cape Canaveral Space Force Station

Loading…

Prossimi Passaggi (prossime 24 ore)

TLE

AggiornatoSource: CelesTrak SupGP

Epoca: Sep 15, 2026, 01:59 UTC

1 53701C 22107B   26258.08312500  .00748970  00000+0  21860-1 0  2580
2 53701  53.1590 110.7461 0001175  82.0224 216.9070 15.34400376    12

Traccia STARLINK-4711 in tempo reale con AllMySat

Download on the App Store